Wind_Speed
28 28 31 32 30 29 28 27 27 22 17 18 19 22 21 17 21 21 13 18 24 24 24 23 25 25 15 12 18 21 22 24 25 25 27 28 27 28 29 31 30 25 23 24 24 27 28 26 27 27 25 24 24 23 20 18 19 19 20 20 19 17 16 16 17 17 17 16 16 15 14 14 13 12 10 8 6 4 3 2 4 7 9 11 12 13
29 32 33 32 27 25 26 25 26 24 17 16 19 22 23 18 19 20 13 16 22 21 23 22 23 25 18 13 17 21 22 26 28 28 27 25 26 28 27 28 30 25 19 18 17 16 17 17 18 21 22 20 18 18 18 18 19 18 19 18 15 14 15 16 17 17 18 18 18 16 14 14 13 11 9 7 5 3 2 4 6 9 11 12 12 12
32 34 32 28 26 23 24 25 25 24 18 15 17 20 22 20 20 20 15 15 21 20 20 21 23 24 19 16 17 22 26 27 28 30 27 24 25 28 26 26 28 22 14 14 13 8 9 11 10 14 18 16 12 10 12 15 15 14 15 13 11 13 15 17 18 18 18 19 20 18 15 14 12 10 8 6 4 3 3 6 8 10 12 12 12 12
33 32 28 25 26 24 24 26 26 23 19 17 17 19 21 21 19 19 15 15 19 21 20 20 23 22 19 17 15 19 24 25 28 30 26 25 26 27 27 25 24 20 16 14 11 8 8 8 8 11 14 15 11 7 10 13 12 12 15 14 13 15 16 17 18 18 18 18 18 16 14 13 11 9 6 4 3 4 5 7 9 11 12 11 11 12
29 27 27 25 25 26 24 26 28 24 20 20 19 18 19 20 18 15 15 16 18 22 21 18 21 22 20 19 16 16 17 19 25 27 26 27 28 27 26 25 22 22 21 18 14 12 11 9 8 10 13 13 12 10 11 13 12 14 16 16 15 17 17 17 17 17 17 17 15 13 12 11 9 7 5 5 4 4 6 8 11 12 11 10 11 13
26 23 27 28 27 27 25 26 30 26 21 21 21 19 18 19 18 14 14 18 19 22 24 19 17 18 21 22 20 19 16 15 20 23 25 27 29 28 26 25 25 25 23 20 15 13 15 16 13 10 11 11 9 10 13 14 15 17 17 16 15 16 16 16 17 18 18 16 12 11 11 10 9 7 6 5 4 5 7 10 11 11 10 10 12 13
25 24 28 30 28 29 27 26 29 26 22 21 21 21 17 16 19 16 16 19 18 21 24 21 17 14 19 22 21 20 17 15 19 22 25 26 27 28 27 27 27 24 21 20 18 16 17 20 18 14 12 10 9 11 14 15 16 15 14 14 14 15 16 16 17 17 17 15 12 11 12 10 9 7 6 5 5 7 9 11 12 10 10 10 12 13
26 26 30 31 29 30 30 28 27 28 24 18 19 22 16 13 18 18 18 19 17 18 21 25 24 17 17 22 22 22 19 16 20 23 25 27 26 26 27 28 27 22 18 18 19 18 17 19 21 20 17 15 15 15 14 15 15 13 13 13 14 14 16 17 18 18 18 15 13 12 12 10 8 7 5 5 6 8 10 12 11 10 9 11 13 13
27 29 31 31 30 30 30 27 25 27 25 16 17 22 16 11 14 16 17 18 18 18 20 25 27 19 15 21 22 24 25 21 21 24 25 27 28 27 27 26 25 21 18 18 17 16 17 19 21 22 22 20 18 16 15 16 15 14 15 16 15 15 18 20 20 19 18 15 13 14 12 10 8 6 5 6 7 9 11 12 11 10 10 12 13 13
25 28 29 30 30 28 27 25 22 27 26 15 14 22 19 13 14 14 14 18 18 16 17 22 25 18 13 20 24 24 28 27 25 25 25 25 25 26 26 23 22 21 20 19 18 17 18 19 20 22 24 22 19 17 17 16 16 17 19 18 17 18 19 20 20 19 17 15 14 14 11 9 8 7 7 7 8 10 12 12 11 10 11 12 13 12
23 24 26 28 29 26 24 24 22 26 26 14 13 20 20 16 16 14 14 18 16 13 17 22 25 22 14 16 25 26 26 27 27 27 26 25 24 24 24 22 21 21 21 22 21 21 19 19 20 21 23 23 19 17 15 14 16 19 19 18 18 20 20 19 20 19 16 15 15 13 11 10 8 8 8 8 9 11 13 12 11 11 12 13 13 12
23 25 27 27 27 25 24 25 23 26 27 17 14 20 19 18 17 15 16 18 13 10 18 23 23 23 18 14 20 23 23 23 26 28 28 27 26 25 24 23 21 20 22 23 23 23 21 21 22 22 23 22 18 16 13 12 17 20 20 20 20 21 21 20 20 17 15 14 13 12 11 10 9 9 9 9 10 12 13 12 11 11 12 13 13 13
26 28 27 25 27 26 25 27 24 26 29 20 18 23 20 16 14 13 13 13 11 10 16 23 23 21 20 20 18 19 22 22 22 25 26 27 27 26 26 24 21 21 22 25 25 24 23 22 24 24 23 21 18 15 11 11 16 19 20 24 25 22 21 20 18 15 13 12 13 13 12 11 10 10 9 9 11 13 13 11 11 11 13 13 13 12
25 25 28 26 28 29 28 29 28 29 32 26 23 26 20 12 10 10 10 9 11 12 15 22 23 18 19 21 19 17 19 21 22 22 23 26 26 25 25 24 23 24 24 25 26 26 25 23 24 24 22 20 18 13 10 12 16 16 17 22 25 23 21 18 14 13 12 12 13 13 12 11 11 10 9 11 12 13 12 11 11 12 12 13 12 12
23 20 30 31 29 31 30 29 26 26 30 28 24 24 21 17 11 9 9 9 10 13 15 17 19 18 16 15 16 17 17 17 21 22 21 25 27 24 24 25 25 26 26 26 27 27 26 24 24 23 21 20 17 12 12 14 16 16 17 18 18 18 17 15 13 12 12 13 13 13 12 12 11 10 10 12 13 13 12 11 11 12 12 12 12 12
24 18 27 29 26 30 30 26 24 24 27 27 24 23 24 22 16 12 11 9 9 12 15 15 16 18 17 11 11 14 16 15 17 19 19 22 25 23 24 26 25 24 25 27 28 28 27 25 24 22 20 20 16 12 13 15 15 16 17 16 15 15 15 15 14 13 13 13 13 13 12 12 11 11 11 13 13 13 12 11 11 12 12 12 12 12
24 18 26 27 23 28 30 24 23 24 23 24 26 26 23 21 19 16 13 8 7 9 13 16 15 17 18 14 13 13 15 17 17 17 17 18 20 22 26 28 25 24 25 27 28 29 28 26 24 22 22 20 16 13 14 15 14 15 16 15 16 17 17 16 14 13 13 13 13 12 12 12 12 12 12 13 13 12 12 11 12 12 12 12 12 13
23 19 26 28 23 26 29 24 21 22 22 22 27 25 19 19 20 18 13 8 8 9 12 18 19 19 19 15 17 19 18 18 19 19 20 20 23 24 28 29 25 26 29 29 29 29 28 27 25 23 22 20 17 15 15 15 15 15 16 17 18 18 18 16 14 13 13 13 13 13 13 13 13 13 14 14 13 12 11 11 12 12 12 12 13 14
24 19 23 27 24 24 29 26 21 23 24 21 23 23 20 19 18 18 15 10 11 9 9 18 20 20 22 18 18 23 22 21 21 22 22 23 24 25 27 27 25 27 30 30 30 30 30 28 25 23 22 20 19 18 18 17 16 15 15 15 17 18 17 16 15 14 14 14 14 14 14 14 14 14 15 14 13 12 11 11 12 12 12 12 13 13
26 19 18 25 25 24 29 30 25 26 27 21 20 25 24 18 16 20 18 13 13 9 7 15 16 15 20 20 19 22 23 22 23 23 23 23 25 25 25 24 26 28 29 30 31 32 32 29 26 25 23 20 20 19 19 19 16 15 13 13 15 17 16 16 16 16 15 15 15 15 15 15 15 15 15 14 13 12 11 12 12 12 12 12 13 13
26 20 18 23 26 25 29 33 29 27 30 24 21 26 26 19 18 19 18 17 16 10 7 9 10 13 18 19 19 21 21 22 23 23 23 24 26 27 25 25 27 28 29 31 31 32 33 31 28 26 22 19 19 19 20 19 17 15 13 14 16 17 17 17 17 17 17 16 16 15 15 16 16 16 14 14 13 12 12 13 13 12 12 12 12 13
25 21 21 24 29 29 29 31 29 26 29 26 21 23 23 21 20 16 14 17 17 13 11 9 8 13 16 16 17 19 19 21 22 22 22 24 27 29 27 26 27 29 31 33 32 33 33 32 28 24 22 20 20 20 21 20 18 15 14 15 15 16 17 17 17 17 17 17 16 16 16 16 16 15 14 14 13 12 13 13 12 12 12 12 13 14
22 20 22 24 26 26 24 25 27 25 25 25 23 22 21 22 23 17 12 16 17 15 15 13 10 10 13 14 15 14 14 16 20 22 21 23 29 31 26 25 28 30 32 33 33 33 32 31 28 25 25 23 23 23 23 21 19 18 17 16 16 16 17 17 17 18 18 18 17 17 16 16 15 15 15 14 12 12 13 13 12 12 12 13 14 14
20 17 22 23 21 21 21 22 25 25 24 26 27 25 22 23 24 18 13 14 17 16 15 12 7 8 15 18 17 15 13 14 17 21 23 25 29 28 24 26 30 30 31 33 34 32 30 29 30 29 28 26 26 26 25 23 21 20 20 20 18 17 17 17 18 18 19 18 18 18 17 17 16 15 15 14 13 13 14 12 12 12 13 13 14 15
21 18 23 22 17 18 20 20 24 29 27 26 29 28 24 22 22 21 16 13 14 18 17 12 6 7 15 16 16 17 17 16 17 20 24 26 26 24 23 27 30 30 32 34 35 32 31 31 33 32 30 28 28 28 27 25 23 21 21 21 20 18 18 18 18 18 19 19 20 20 19 19 17 16 16 15 14 14 13 12 12 13 13 14 15 16
23 20 23 22 15 14 16 16 22 30 28 24 26 28 26 24 23 22 20 15 13 15 18 17 9 6 12 14 14 17 18 18 19 20 23 26 25 22 22 26 31 32 32 34 35 34 34 34 34 34 31 30 30 30 29 27 24 22 22 21 20 18 18 18 18 18 19 20 21 21 20 19 18 17 16 15 14 14 13 12 12 13 13 14 15 16
22 21 22 22 19 17 17 17 19 25 26 23 24 27 28 26 23 22 22 19 16 13 16 20 13 5 8 11 12 16 18 18 20 22 23 24 23 21 22 27 32 33 33 34 35 36 36 35 35 36 34 32 32 31 30 28 26 24 22 20 19 18 18 17 17 18 19 20 20 19 19 19 18 17 17 15 14 14 13 12 13 13 13 14 15 15
19 22 22 19 19 20 19 18 20 23 25 24 23 25 27 27 24 23 23 20 16 13 13 18 17 9 6 7 9 14 18 17 19 23 24 22 21 23 24 27 30 32 33 33 34 36 37 37 37 37 37 35 34 32 30 30 29 26 23 20 19 18 17 16 16 16 17 18 17 17 18 18 18 18 17 16 15 14 13 12 12 13 13 14 14 14
16 20 22 18 16 15 15 19 22 23 24 24 23 24 25 26 26 25 23 19 16 15 12 12 17 17 10 9 11 13 16 17 18 21 23 21 23 27 29 28 29 32 34 34 35 37 38 39 40 39 38 37 35 33 31 31 31 28 24 22 21 19 17 15 14 14 16 17 17 17 18 18 18 18 17 16 15 14 13 12 12 13 14 14 13 13
15 16 20 17 12 9 9 15 20 21 22 24 24 24 24 25 26 24 22 21 17 15 14 9 13 18 15 10 11 12 14 17 18 19 21 22 24 27 30 29 27 30 35 37 38 38 39 40 40 38 37 36 34 32 30 30 30 28 26 25 23 20 18 15 14 14 15 17 19 19 20 20 20 19 18 16 15 14 13 12 13 13 13 13 13 13
16 15 18 18 13 9 7 10 16 18 20 22 23 24 24 23 25 24 22 23 19 16 15 10 9 14 16 13 11 13 15 15 13 13 15 18 18 19 22 25 26 29 35 38 39 39 39 39 38 37 36 35 33 31 30 30 30 28 26 24 22 21 19 15 14 16 17 18 20 21 22 21 21 20 18 17 16 14 13 13 13 13 13 13 12 13
18 14 18 19 15 13 11 11 14 16 17 20 23 24 25 24 25 25 23 23 22 18 16 14 10 10 14 16 15 15 15 14 12 11 12 11 11 13 15 19 24 27 31 35 39 40 39 39 39 39 38 36 33 33 32 30 27 24 22 19 17 18 19 17 17 20 21 21 21 22 22 22 22 20 19 18 16 15 14 13 12 12 12 12 12 13
18 13 17 21 16 14 14 12 13 14 14 17 21 23 25 24 24 24 23 23 23 20 17 17 14 10 10 13 15 16 17 18 17 15 15 12 10 12 15 17 21 24 26 30 35 38 39 40 40 39 37 34 31 30 28 24 22 21 21 20 17 15 18 21 24 25 25 23 22 22 22 22 22 21 20 18 17 15 14 13 12 12 12 12 12 13
17 12 16 19 16 13 14 11 11 12 11 11 17 21 23 23 24 24 24 23 23 22 19 16 15 13 9 10 12 15 18 20 19 17 18 17 12 12 15 17 20 24 26 29 32 36 38 38 37 36 33 29 27 26 24 22 21 22 24 23 20 17 19 23 26 27 26 24 22 21 22 23 22 21 20 18 16 15 14 12 11 11 12 11 12 13
17 14 16 18 16 12 13 12 10 10 9 8 15 21 22 21 22 22 22 23 23 23 21 17 15 13 10 8 9 12 15 17 18 17 19 18 14 11 12 16 20 24 30 35 38 38 37 35 34 32 28 26 26 27 25 24 24 25 25 24 21 19 20 23 24 25 24 22 21 22 23 23 22 21 20 18 16 14 12 11 11 11 11 12 12 12
17 15 14 17 16 11 12 14 9 4 6 8 12 20 24 23 23 21 20 21 22 23 22 19 17 14 10 10 13 14 14 13 13 15 17 16 13 11 9 12 17 22 26 31 34 33 32 32 30 28 27 27 27 27 26 25 25 26 25 23 20 19 20 21 22 22 22 21 22 23 23 22 22 21 19 17 15 13 11 10 10 11 12 12 11 10
18 16 13 16 18 11 11 15 8 2 5 8 10 17 24 26 26 24 21 20 21 22 22 21 19 16 13 15 18 16 12 11 11 13 14 12 10 10 8 9 14 19 20 22 23 23 25 26 26 28 29 28 26 26 26 26 26 26 24 22 20 20 20 21 22 21 21 22 23 23 22 22 21 20 18 16 14 12 9 8 9 10 12 12 10 9
18 17 13 14 15 11 10 12 9 4 5 8 10 14 22 26 26 24 21 20 20 22 23 22 21 18 16 19 20 16 12 13 13 12 11 9 8 9 10 11 16 20 22 21 20 20 22 24 26 28 28 26 25 26 27 26 26 25 22 20 20 20 21 21 21 21 22 23 23 23 23 22 21 19 18 15 13 10 8 6 8 11 13 11 9 6
19 18 15 13 13 12 10 10 10 8 4 5 7 12 19 25 26 25 20 19 20 22 22 23 21 19 20 22 20 16 13 12 12 12 11 10 10 10 11 13 17 22 24 24 22 21 23 25 26 26 25 25 26 26 26 25 24 21 20 19 19 20 21 21 21 22 23 24 23 23 23 21 20 19 17 15 12 10 7 6 10 13 13 10 6 3
18 18 18 17 15 14 13 12 10 7 4 5 7 9 16 23 24 21 16 13 16 19 20 23 23 20 22 23 19 15 14 11 11 12 12 10 11 11 12 15 18 22 25 26 27 26 25 23 23 24 25 26 26 25 25 24 23 20 19 19 19 21 21 21 22 23 24 24 23 23 22 21 19 18 16 14 11 9 5 7 12 14 11 7 4 4
16 17 19 19 17 16 14 14 11 6 4 8 8 8 13 19 20 17 11 9 17 21 20 20 21 21 23 24 19 17 17 16 15 13 12 11 12 12 13 15 18 22 25 28 30 30 28 25 25 26 26 26 26 26 26 25 23 20 20 20 21 21 21 22 23 23 24 24 24 23 21 20 18 17 15 13 11 7 5 10 14 13 8 5 5 8
16 17 18 18 18 17 15 14 13 8 8 10 10 9 12 14 14 12 9 10 17 22 22 20 21 23 24 24 21 19 18 18 17 16 15 15 13 12 13 15 19 23 26 29 32 32 30 28 28 28 28 28 28 28 27 24 22 21 21 21 21 21 22 23 23 24 25 25 24 22 21 19 18 16 15 13 10 6 8 13 14 10 7 7 9 11
18 18 18 18 16 15 16 15 11 8 10 12 11 9 9 8 7 8 9 11 15 20 22 21 22 25 25 24 24 22 18 17 18 18 18 18 15 13 13 15 18 21 24 28 30 29 28 28 29 29 29 28 28 28 25 23 21 19 19 19 20 21 22 24 25 26 26 25 23 21 20 19 18 16 15 12 8 8 12 14 12 9 8 10 12 12
16 17 15 16 17 16 14 12 8 6 10 12 12 12 10 6 5 7 9 11 12 14 17 18 20 22 23 22 22 22 20 18 18 20 22 21 18 16 15 15 16 19 23 27 29 29 30 31 30 29 28 28 28 26 23 20 17 17 17 18 19 21 23 25 26 26 26 25 23 22 20 20 18 17 15 11 9 11 14 13 11 10 11 13 13 12
14 17 12 8 12 14 9 5 6 7 9 9 10 14 14 9 7 8 9 8 6 7 10 13 16 18 19 19 20 22 22 20 19 21 23 20 18 17 17 16 15 18 24 28 29 31 33 31 29 29 28 28 28 25 22 18 16 16 16 18 20 22 24 25 26 26 26 25 23 22 21 20 19 17 14 12 12 14 14 12 11 12 14 15 14 12
15 21 15 5 6 12 9 5 6 8 8 7 8 10 14 13 11 11 12 9 6 5 5 8 10 12 13 14 18 21 22 21 20 22 22 19 17 18 18 16 16 21 27 29 29 30 31 30 29 29 28 28 28 24 19 16 15 16 17 18 21 23 24 25 25 26 26 24 22 21 21 20 18 16 14 13 13 14 14 13 13 15 16 16 14 12
17 21 18 9 6 9 9 9 10 9 8 9 9 9 13 15 15 15 16 15 11 8 7 7 8 10 12 13 15 19 21 21 20 20 19 17 17 18 18 17 18 22 28 30 30 31 32 32 31 30 28 27 25 20 17 15 16 17 18 20 22 24 25 26 27 26 25 23 22 21 20 19 17 15 13 14 15 15 14 15 17 18 18 16 14 12
13 17 17 12 8 8 7 9 13 13 11 11 10 10 12 15 16 16 17 18 16 12 10 10 11 12 14 15 16 19 22 23 21 19 18 17 17 18 17 17 18 22 28 31 32 32 33 32 30 29 28 25 21 18 17 16 15 17 19 20 22 24 25 27 27 26 24 23 22 21 20 19 17 15 15 15 16 15 15 17 19 18 16 14 12 11
8 11 13 11 10 10 8 8 11 13 13 14 13 12 12 13 16 17 17 18 18 16 15 15 14 15 15 16 18 20 22 22 22 21 20 18 17 18 17 16 19 23 27 30 31 31 31 31 29 28 26 22 19 18 17 15 15 16 18 20 21 24 26 27 26 25 23 22 21 21 20 18 16 15 15 15 14 14 14 16 18 18 15 13 11 10
7 8 9 10 11 10 9 9 11 10 9 12 15 15 13 12 13 15 17 18 18 18 18 17 15 15 16 17 18 19 20 21 22 23 22 19 18 18 17 17 20 23 27 31 33 32 31 29 28 26 23 20 19 18 16 15 15 16 18 20 22 25 26 26 25 24 23 22 22 21 20 18 17 16 15 15 15 15 16 18 18 18 16 14 12 10
10 9 10 11 10 9 10 12 12 11 10 11 13 14 14 13 13 13 15 17 17 17 17 16 16 16 17 18 19 20 20 20 21 23 23 20 18 18 18 19 21 24 29 33 35 33 30 28 28 26 22 20 20 18 16 15 15 16 18 22 24 25 26 25 24 24 24 24 23 21 20 18 17 16 16 16 17 19 20 21 20 18 15 13 12 10
Wind_Direction
192 197 202 206 205 203 204 205 209 213 217 216 207 208 215 213 210 212 205 192 190 197 207 210 214 212 213 231 228 215 202 202 203 198 200 202 197 198 203 204 204 207 199 187 195 201 197 196 193 190 191 194 193 186 185 194 201 205 209 209 205 202 203 209 215 212 208 201 197 197 180 169 166 164 170 171 170 183 205 274 300 310 312 310 310 314
195 204 206 206 204 203 204 204 208 214 224 221 209 208 212 215 211 204 192 185 188 200 209 209 216 216 209 209 217 218 208 201 204 203 202 207 207 204 205 207 208 212 210 204 208 206 203 203 200 199 197 197 198 186 184 196 201 207 214 214 205 201 206 213 217 213 207 197 189 191 180 166 161 160 170 174 176 201 249 289 303 308 308 310 312 317
199 208 207 204 202 203 204 203 207 212 219 219 211 210 209 212 211 197 184 188 193 203 211 207 214 218 209 206 209 211 210 200 200 205 205 208 210 208 210 210 211 221 232 228 224 226 226 212 204 213 213 215 214 190 198 211 207 212 223 221 207 207 214 218 218 215 210 198 186 185 173 158 158 164 170 177 191 235 277 293 303 306 307 309 312 319
200 207 203 200 201 202 202 201 204 207 210 215 214 209 208 211 207 190 181 192 196 204 214 206 212 218 206 209 213 204 202 193 192 202 206 206 207 209 211 209 211 226 246 248 238 240 237 210 200 214 219 226 229 213 218 219 213 217 222 218 208 209 216 217 214 212 212 205 192 180 159 150 160 165 169 190 217 255 287 298 302 303 304 308 314 323
202 203 196 197 200 200 200 199 201 205 206 211 216 211 209 209 201 193 194 196 197 208 220 212 211 216 205 204 207 197 194 182 181 193 199 202 206 207 203 200 208 220 230 238 233 228 227 214 211 219 218 221 226 229 226 217 214 219 220 217 211 210 213 210 205 205 208 209 196 170 151 155 168 171 184 211 235 266 292 297 297 300 304 311 319 326
204 200 194 195 198 197 199 199 200 203 203 208 216 214 214 209 198 203 199 189 194 205 213 212 209 209 201 204 204 191 186 180 183 191 195 200 205 205 197 194 207 215 216 220 213 206 213 217 221 226 224 219 220 227 223 216 216 219 220 218 214 210 206 200 198 202 208 206 186 162 165 175 180 191 202 220 248 279 294 296 300 306 310 317 325 329
203 197 194 194 196 195 198 201 199 199 203 210 212 209 221 220 202 201 194 187 196 201 201 206 213 204 193 206 207 189 184 187 196 199 196 199 202 201 197 197 208 214 210 211 207 198 204 218 224 224 221 218 218 222 219 218 218 217 219 220 215 204 196 196 197 200 207 199 173 166 181 186 190 202 212 233 269 294 300 302 307 313 316 322 329 332
199 193 194 194 194 195 198 200 196 195 204 210 203 201 216 221 202 194 192 196 203 203 200 205 219 223 203 209 210 200 203 201 203 205 199 201 202 199 198 200 209 214 207 205 205 200 198 210 220 220 217 213 211 213 217 221 217 209 210 215 211 196 190 198 199 194 195 185 168 174 187 190 200 213 226 255 287 302 304 309 314 315 319 326 330 332
195 195 193 189 190 194 196 197 193 193 203 209 197 196 203 202 193 190 195 207 207 204 206 204 214 231 221 211 210 208 210 208 208 209 203 203 202 200 202 204 210 212 203 198 199 198 194 201 213 217 217 211 204 208 215 219 213 198 199 206 203 192 190 195 196 193 186 175 171 181 190 196 209 225 243 268 291 301 306 314 316 315 320 327 331 332
193 196 189 185 190 194 195 196 193 192 199 206 193 191 194 191 194 198 203 214 213 210 217 208 207 223 227 207 207 208 204 203 209 209 206 206 201 199 204 207 210 208 196 188 188 188 191 202 211 215 215 208 203 214 220 220 213 197 194 199 196 192 194 192 194 193 181 173 180 185 192 203 216 235 252 273 291 301 311 316 315 315 322 329 332 331
191 191 187 191 196 197 196 195 194 193 195 196 183 186 192 196 203 210 214 221 222 213 219 217 209 216 230 205 201 208 208 205 207 207 207 207 202 204 210 208 207 206 197 187 183 183 190 203 206 205 209 208 211 224 228 222 214 202 197 201 195 189 194 196 198 195 179 176 187 189 196 211 224 241 257 277 294 305 315 318 316 318 324 330 331 330
183 187 192 197 198 195 194 193 192 194 195 191 183 188 192 195 201 208 212 223 233 214 211 219 212 210 226 217 199 205 212 207 203 206 211 211 210 209 210 212 210 209 204 194 187 188 192 199 200 199 205 211 221 230 230 220 209 201 195 199 200 191 193 199 198 192 180 180 191 198 206 218 232 246 263 283 297 309 316 316 314 318 325 330 330 329
185 194 196 195 195 192 190 190 187 192 198 194 188 193 191 187 194 203 206 212 228 225 212 216 213 210 224 229 213 203 207 208 205 208 212 215 219 213 204 210 213 214 212 201 195 196 197 199 199 200 206 216 224 224 223 217 207 202 191 191 197 196 195 198 192 184 182 188 197 206 215 225 239 254 270 288 300 310 314 311 311 319 324 327 327 327
183 195 195 192 193 192 191 189 185 189 196 195 193 195 194 188 186 197 205 201 215 225 214 213 215 216 224 229 224 209 205 209 209 208 204 205 218 219 207 207 209 211 211 202 199 200 199 202 201 200 205 218 225 217 210 210 205 208 200 189 190 192 191 192 189 185 188 197 204 212 222 232 246 261 277 291 302 310 310 306 309 318 323 324 325 324
177 189 193 191 191 190 192 194 189 187 193 197 199 200 202 204 193 192 208 201 205 214 209 213 217 213 216 222 217 203 197 207 208 207 206 204 212 217 211 208 208 208 205 199 200 200 199 204 203 199 205 221 229 215 200 205 202 203 205 195 190 192 190 188 193 196 198 205 211 217 227 238 251 267 280 292 302 306 304 303 311 319 322 322 322 321
186 194 190 188 188 187 190 195 192 187 191 196 201 206 210 208 197 196 215 218 218 214 206 215 220 211 211 222 213 187 179 191 195 196 203 202 201 202 203 207 211 210 201 193 196 198 197 200 198 196 206 220 226 211 198 202 198 196 202 200 197 201 200 196 200 204 205 211 216 221 234 245 256 270 281 292 301 302 301 305 313 318 320 319 319 318
190 191 181 180 184 188 189 190 191 190 189 190 199 208 210 207 203 200 209 229 239 222 203 204 210 209 214 223 213 190 180 186 188 191 198 202 202 201 204 209 211 209 201 194 196 196 194 195 193 198 209 217 224 219 206 202 197 198 204 204 203 205 205 203 205 208 210 216 221 227 239 250 260 271 281 290 297 298 298 304 311 315 316 315 315 315
187 177 172 178 183 187 190 190 194 197 192 190 199 205 201 205 216 211 204 208 218 221 202 193 199 210 216 213 201 199 200 199 200 200 203 216 222 212 209 211 205 201 201 201 201 195 191 193 194 200 211 220 229 229 218 208 201 205 211 210 209 209 209 210 213 216 219 222 227 233 242 252 262 272 280 288 293 294 294 301 308 311 311 311 312 313
188 173 170 184 184 180 186 192 198 201 202 202 199 199 198 202 213 214 208 201 202 217 210 195 199 214 220 212 196 198 204 204 207 205 202 215 222 208 204 209 203 199 202 205 203 195 191 194 197 204 214 221 228 229 222 214 208 212 219 218 215 214 215 218 220 222 224 227 231 237 244 253 263 271 278 285 289 289 292 299 304 305 305 307 310 312
188 173 170 186 184 173 181 193 197 194 199 209 203 201 205 204 205 210 209 203 199 208 216 204 204 215 222 216 199 199 205 204 206 206 200 205 214 208 206 211 207 203 205 208 204 196 194 197 200 207 215 221 228 231 227 221 216 217 223 222 218 217 217 219 221 223 227 230 233 238 246 255 264 269 276 283 285 285 289 296 298 298 301 305 309 311
189 181 172 180 181 180 185 193 196 191 192 200 203 202 201 198 200 206 208 208 205 202 206 213 216 218 218 216 205 203 208 208 204 204 200 200 212 218 214 212 209 206 207 209 205 198 197 200 203 208 214 220 227 231 230 228 224 220 220 220 217 215 215 217 219 222 227 231 234 240 249 257 264 270 276 280 280 281 287 292 292 294 300 306 309 312
187 182 177 178 181 187 192 193 195 195 193 194 199 200 197 192 195 200 205 209 211 211 206 207 224 224 218 216 211 205 208 210 204 202 199 197 211 223 219 212 210 207 208 208 204 201 201 201 203 209 214 218 222 226 229 229 225 220 219 218 215 212 212 214 218 223 228 233 237 244 252 259 265 271 276 276 275 278 284 286 288 294 301 306 308 311
180 176 176 179 182 187 191 191 194 198 197 197 201 203 198 196 200 204 205 203 210 222 217 212 222 216 200 199 202 198 199 199 196 197 194 195 212 224 221 212 210 210 210 205 201 203 204 200 203 208 211 214 219 223 226 226 222 220 220 219 215 214 214 217 221 225 230 235 241 246 253 261 267 272 274 271 269 275 280 282 287 295 300 304 307 309
186 184 173 173 176 179 185 190 195 201 201 200 205 207 203 202 204 209 211 201 206 219 217 213 219 190 179 188 198 201 197 190 192 197 195 200 215 222 215 208 208 210 207 202 200 203 202 199 204 209 209 211 219 224 224 223 221 221 222 221 219 218 221 223 226 229 233 238 244 249 255 262 268 271 270 265 265 270 276 280 287 293 297 301 306 309
190 189 174 172 171 175 183 186 191 199 203 202 204 207 208 205 201 208 219 211 205 216 217 215 223 190 183 193 203 206 202 195 197 197 194 202 214 215 209 206 206 206 202 199 200 201 198 200 206 208 207 211 219 225 225 223 222 222 223 221 220 222 227 230 232 235 238 242 248 252 257 261 265 267 264 259 261 267 273 278 283 289 295 301 306 309
191 190 179 181 182 180 184 184 187 193 197 201 203 204 207 206 201 205 217 218 209 214 220 223 223 179 182 201 206 200 196 192 189 187 191 204 214 215 211 207 205 204 200 199 200 199 198 203 207 208 209 213 219 224 226 224 220 221 222 219 219 225 230 235 239 242 244 248 252 254 256 258 260 260 257 254 258 265 269 274 281 288 295 302 306 309
192 193 187 188 192 191 187 188 190 189 192 198 201 201 205 207 206 204 211 219 217 211 218 223 217 151 167 203 203 190 188 186 186 191 198 207 213 211 209 208 207 203 199 199 201 201 201 205 207 208 211 214 219 223 225 222 220 221 220 216 217 224 230 237 243 247 249 250 251 252 252 253 254 253 250 249 254 261 265 271 279 286 294 301 305 308
189 191 192 194 196 196 193 193 192 191 195 199 199 200 204 205 207 207 208 215 216 211 217 219 214 206 190 198 200 194 190 185 189 202 208 207 203 199 203 211 209 201 197 199 201 201 202 204 206 209 213 216 219 222 221 220 222 222 219 215 217 221 226 235 242 246 247 247 248 249 249 250 250 248 245 245 251 257 261 268 276 284 292 299 303 307
185 186 192 198 194 193 202 201 192 191 197 200 201 202 202 202 204 207 209 208 209 215 224 217 212 217 211 192 201 203 197 192 194 207 213 208 200 197 201 211 211 200 196 198 200 201 202 204 208 212 215 217 219 220 219 221 224 223 219 217 217 218 221 230 239 244 247 248 248 250 251 250 248 244 241 243 249 253 257 264 273 282 290 296 302 308
190 187 191 198 191 182 205 200 189 190 197 200 202 202 201 202 204 205 206 206 209 220 230 230 220 219 215 202 198 202 205 203 200 208 217 220 217 210 207 212 211 201 196 197 201 202 203 207 211 213 215 217 218 220 221 224 226 224 221 219 217 217 221 228 240 249 253 254 253 251 251 249 245 240 238 241 246 249 253 260 269 279 288 294 302 308
196 194 187 190 189 181 191 191 184 191 198 199 202 204 203 204 204 204 204 205 211 218 220 228 229 215 212 210 201 206 215 214 208 216 226 230 231 224 216 214 212 205 200 199 202 204 205 209 211 211 214 217 220 224 226 226 227 227 227 223 217 217 222 231 245 253 256 258 256 251 248 244 240 237 236 239 243 244 248 256 265 276 286 293 301 308
193 196 187 191 196 190 188 190 191 197 203 205 205 204 203 204 203 204 205 205 209 212 211 217 220 203 206 215 218 221 229 236 244 253 255 248 234 227 222 219 220 216 206 202 204 205 205 208 210 210 214 217 220 225 226 225 229 237 242 240 232 227 227 232 243 251 256 259 257 250 243 238 235 234 234 237 239 240 245 252 262 274 284 292 299 306
189 189 185 192 201 195 189 192 195 201 209 211 209 206 204 205 205 205 207 207 208 210 211 215 218 211 204 211 222 232 240 248 256 261 266 266 245 226 220 217 222 220 208 203 208 209 207 207 209 211 214 217 221 228 230 228 230 241 249 253 256 246 232 232 240 248 255 258 255 246 238 233 231 231 233 235 235 237 242 249 260 272 281 289 297 306
186 184 181 190 198 190 181 180 187 200 211 207 202 202 204 206 206 205 207 206 206 210 214 215 218 221 211 200 217 236 243 249 255 259 261 262 254 236 221 214 215 211 201 201 209 213 213 210 209 210 212 215 223 232 239 237 233 239 247 254 260 254 241 241 244 247 250 252 248 239 232 229 228 229 232 232 231 234 239 247 260 272 279 288 297 307
179 181 179 187 194 177 167 178 188 201 216 206 194 198 201 202 202 204 207 208 206 209 212 214 214 216 213 200 207 223 232 240 248 254 257 257 256 247 228 216 214 206 201 204 211 216 219 215 210 209 211 215 222 227 231 231 229 235 245 253 256 255 250 249 246 244 245 244 237 230 227 225 226 228 230 229 228 231 236 246 260 271 280 289 299 310
176 180 178 185 190 165 161 189 197 181 199 202 197 200 202 200 197 197 202 205 205 206 210 213 213 211 209 204 202 210 222 232 243 250 251 253 254 248 231 219 218 210 203 208 214 217 216 210 206 205 208 213 218 220 221 224 229 236 244 248 253 256 254 248 244 242 239 233 227 224 222 223 226 228 228 227 226 227 233 246 261 273 283 291 302 313
179 187 188 190 193 184 183 196 193 133 185 197 200 203 203 204 202 199 202 204 204 208 210 212 212 209 208 214 214 217 229 240 248 250 247 248 253 246 226 205 203 201 196 199 207 208 203 200 202 205 209 214 216 216 219 226 235 239 241 245 253 258 252 244 241 238 230 225 222 219 219 222 225 226 226 225 223 224 231 246 265 278 286 292 302 314
188 194 197 193 195 208 217 201 191 211 214 196 201 203 200 203 204 203 210 217 213 211 211 211 211 207 210 220 219 218 234 249 254 255 249 246 252 242 222 199 187 190 194 194 195 197 198 200 205 208 210 214 217 219 225 233 238 238 240 249 257 255 247 239 235 230 223 221 219 217 218 222 223 224 223 221 219 221 225 244 272 283 285 289 300 310
195 200 205 202 201 210 221 214 207 219 215 181 201 206 198 200 201 199 210 224 219 211 211 210 209 207 214 221 219 219 237 251 252 253 249 243 247 241 226 210 193 190 196 197 197 203 205 203 204 206 208 213 218 223 229 235 239 241 247 255 255 246 239 234 229 223 220 218 216 216 218 220 221 221 219 215 215 213 216 251 276 278 278 283 292 286
197 202 207 211 212 208 214 224 217 204 196 187 190 196 197 198 198 197 205 214 202 200 209 210 205 206 215 219 219 227 239 233 224 233 236 235 240 237 229 221 206 197 196 197 201 211 213 205 202 206 212 218 221 226 232 238 242 247 254 256 248 239 234 229 223 219 218 216 215 216 217 218 218 217 213 210 209 205 217 265 271 268 269 273 263 203
196 201 206 212 217 210 210 224 221 195 197 204 183 165 179 187 190 194 202 195 183 189 203 206 203 209 216 216 219 232 236 227 220 228 234 236 238 235 231 228 216 204 197 196 201 207 208 204 205 212 218 221 224 231 237 241 245 252 255 249 240 233 229 223 219 216 214 214 214 215 216 216 214 212 208 205 200 199 235 261 260 257 257 245 206 176
189 196 205 212 218 214 210 221 223 202 196 208 196 165 160 171 182 190 193 187 185 191 200 199 198 208 216 217 223 231 230 223 223 231 240 244 242 237 237 233 221 210 204 202 204 205 205 206 210 214 216 220 227 235 240 245 251 253 247 239 231 226 222 217 213 212 211 212 212 213 214 214 210 207 205 200 194 205 243 250 248 245 232 205 182 171
186 190 201 207 212 216 214 218 227 211 193 203 207 190 171 175 189 186 177 182 190 197 203 203 204 211 214 219 228 231 225 222 228 234 240 245 246 243 241 236 229 224 218 209 202 200 204 210 214 216 219 225 232 238 243 250 253 246 235 227 223 219 215 212 211 210 210 210 211 211 211 208 205 204 202 196 196 221 237 239 236 224 203 185 176 173
187 191 202 204 205 214 215 209 210 188 174 184 201 209 208 201 193 186 181 182 187 194 198 201 206 211 213 219 227 227 222 227 236 237 237 243 249 247 243 239 237 233 222 206 195 196 203 209 214 219 224 230 236 241 247 252 246 234 225 220 216 212 211 211 211 211 210 209 209 209 207 204 202 202 197 193 204 223 231 232 222 203 186 179 176 176
190 196 203 195 197 209 207 166 158 162 162 177 206 216 215 208 202 211 212 203 194 195 194 194 199 205 211 221 227 225 224 231 240 240 241 247 250 249 248 246 237 224 212 201 196 201 204 204 210 219 226 232 238 243 248 248 237 226 219 214 211 209 209 210 211 211 211 209 206 204 204 203 201 198 192 192 205 219 224 220 205 189 181 179 179 178
201 202 200 175 189 209 204 164 157 159 164 196 223 224 220 218 217 220 227 233 247 255 233 210 204 207 214 224 229 230 230 233 238 242 246 249 247 245 247 245 232 218 207 200 202 208 207 204 209 218 224 232 240 245 248 243 231 221 215 211 209 209 208 208 209 211 213 211 205 203 203 201 197 193 189 195 209 219 219 207 192 183 180 180 181 181
210 207 203 199 214 218 212 203 194 178 177 208 227 234 231 227 220 213 216 225 238 254 259 246 232 229 232 235 239 239 236 235 238 243 246 247 246 244 243 240 231 219 210 206 208 213 212 211 213 218 225 233 240 244 242 235 227 221 216 212 209 207 207 208 208 209 211 210 208 206 202 196 191 188 192 203 213 215 206 193 187 185 183 183 184 183
212 211 206 208 221 220 213 215 213 211 217 226 233 238 232 223 216 211 210 214 220 232 247 253 248 242 241 242 247 247 243 241 244 248 249 248 247 245 243 236 224 215 213 215 214 212 212 214 218 224 230 235 241 243 238 232 230 226 220 214 209 208 209 209 208 207 208 209 208 204 198 191 187 190 200 212 217 213 202 193 189 186 184 185 187 185
185 201 200 203 216 218 216 222 223 226 234 237 238 240 234 218 210 208 208 211 217 225 236 244 244 242 242 244 247 248 248 247 249 251 253 253 251 250 247 236 221 214 215 219 218 211 211 217 223 228 233 237 241 244 242 236 233 227 218 213 209 206 208 209 208 207 208 208 204 199 195 191 190 196 208 216 215 208 202 196 190 185 184 185 186 184
171 189 190 199 215 215 208 213 216 213 220 230 232 234 233 221 210 207 210 217 222 227 232 237 240 242 246 249 250 251 252 252 252 251 252 254 256 254 248 237 227 217 213 217 218 212 209 217 227 231 233 237 242 245 244 238 230 220 211 208 207 205 206 208 209 209 207 204 199 196 195 196 199 203 208 209 203 194 190 189 187 187 189 189 187 186
202 201 193 199 211 210 206 215 219 212 211 221 225 228 230 226 221 221 222 224 226 228 230 235 241 244 249 252 252 253 254 255 254 252 252 254 257 254 247 237 227 216 211 216 219 213 209 218 229 230 230 236 243 245 239 228 219 210 203 203 205 205 206 209 211 209 205 201 200 202 205 207 207 208 208 206 200 192 188 188 189 189 190 190 190 192
Height
3076 3077 3076 3076 3078 3082 3084 3087 3089 3091 3091 3092 3093 3094 3093 3093 3093 3094 3095 3096 3099 3102 3102 3103 3104 3104 3104 3105 3106 3106 3108 3111 3112 3114 3116 3116 3117 3118 3119 3118 3119 3122 3124 3124 3123 3123 3124 3127 3130 3132 3132 3133 3135 3137 3142 3145 3146 3146 3146 3148 3151 3154 3155 3156 3156 3157 3158 3159 3161 3161 3162 3162 3161 3163 3165 3166 3166 3166 3167 3167 3167 3168 3168 3168 3168 3167
3073 3071 3071 3074 3078 3082 3084 3087 3089 3090 3090 3090 3090 3091 3091 3091 3091 3093 3094 3096 3099 3100 3101 3102 3103 3103 3104 3104 3104 3105 3106 3108 3110 3111 3113 3115 3116 3118 3118 3119 3121 3123 3126 3127 3128 3129 3131 3134 3136 3136 3135 3135 3137 3140 3143 3144 3144 3145 3145 3147 3152 3154 3155 3156 3156 3157 3158 3160 3161 3160 3159 3160 3161 3163 3165 3166 3166 3166 3166 3167 3167 3167 3167 3167 3167 3166
3067 3066 3069 3075 3078 3081 3083 3086 3087 3089 3090 3089 3089 3089 3089 3089 3089 3090 3094 3096 3098 3099 3099 3101 3101 3101 3103 3102 3103 3105 3104 3106 3109 3110 3112 3114 3115 3117 3118 3120 3121 3123 3127 3131 3133 3136 3137 3138 3139 3139 3138 3139 3142 3146 3146 3145 3146 3146 3147 3149 3152 3153 3154 3156 3156 3157 3159 3160 3161 3159 3157 3158 3161 3163 3165 3165 3165 3166 3166 3166 3166 3166 3166 3166 3165 3165
3061 3063 3069 3074 3077 3080 3082 3084 3086 3087 3089 3089 3088 3087 3087 3087 3086 3088 3093 3095 3097 3098 3097 3099 3100 3099 3102 3102 3101 3102 3102 3103 3107 3109 3111 3113 3114 3116 3117 3119 3121 3123 3127 3131 3134 3136 3137 3138 3139 3139 3139 3141 3145 3148 3147 3146 3148 3147 3147 3149 3151 3152 3153 3154 3155 3158 3160 3161 3161 3159 3157 3159 3162 3163 3164 3165 3165 3165 3165 3166 3165 3165 3165 3164 3164 3164
3060 3063 3069 3073 3075 3078 3079 3081 3084 3085 3086 3087 3087 3086 3086 3085 3086 3088 3092 3094 3097 3098 3096 3097 3098 3097 3099 3101 3100 3101 3100 3100 3103 3106 3109 3111 3113 3114 3116 3118 3120 3123 3127 3129 3131 3134 3136 3138 3138 3138 3140 3141 3145 3148 3147 3147 3148 3146 3145 3147 3149 3151 3152 3153 3155 3158 3160 3161 3160 3158 3158 3161 3162 3163 3164 3164 3164 3165 3165 3165 3164 3164 3164 3163 3163 3162
3060 3064 3066 3070 3073 3075 3077 3079 3081 3083 3084 3085 3085 3085 3085 3085 3086 3089 3091 3092 3094 3095 3094 3095 3095 3094 3097 3099 3099 3101 3101 3100 3101 3104 3107 3109 3111 3112 3114 3116 3119 3121 3124 3126 3128 3131 3134 3136 3137 3137 3139 3141 3143 3146 3147 3147 3147 3145 3144 3146 3148 3150 3151 3153 3155 3157 3160 3161 3159 3157 3159 3161 3162 3162 3163 3163 3164 3164 3164 3164 3163 3163 3163 3162 3161 3161
3059 3062 3064 3067 3070 3072 3075 3076 3078 3081 3083 3083 3083 3085 3085 3084 3086 3089 3090 3091 3091 3090 3092 3094 3092 3091 3095 3098 3097 3099 3101 3101 3101 3102 3105 3108 3109 3111 3113 3115 3117 3119 3122 3125 3127 3129 3131 3133 3135 3136 3138 3140 3142 3143 3145 3146 3146 3146 3146 3147 3149 3150 3151 3153 3154 3156 3159 3160 3158 3158 3160 3161 3161 3162 3162 3163 3163 3163 3163 3162 3162 3162 3161 3161 3160 3160
3055 3058 3061 3064 3067 3070 3072 3073 3076 3079 3081 3081 3082 3084 3085 3084 3085 3088 3089 3090 3089 3090 3091 3093 3092 3089 3092 3096 3096 3097 3099 3100 3101 3101 3104 3107 3108 3111 3113 3114 3116 3118 3121 3124 3125 3127 3129 3130 3132 3134 3137 3139 3141 3142 3143 3144 3145 3147 3148 3148 3149 3151 3152 3153 3154 3156 3158 3158 3156 3158 3160 3160 3161 3161 3162 3162 3162 3162 3162 3161 3161 3160 3160 3160 3159 3158
3052 3055 3057 3061 3064 3066 3069 3071 3074 3078 3080 3080 3081 3084 3086 3086 3086 3088 3089 3088 3088 3088 3087 3089 3092 3089 3088 3093 3095 3095 3097 3100 3101 3101 3103 3106 3108 3110 3113 3114 3115 3117 3120 3123 3125 3126 3127 3128 3130 3133 3135 3137 3139 3141 3142 3143 3144 3147 3147 3148 3150 3152 3153 3153 3153 3155 3156 3155 3155 3157 3159 3159 3160 3161 3161 3161 3161 3161 3161 3160 3160 3159 3159 3158 3158 3158
3051 3054 3057 3060 3062 3064 3068 3071 3074 3076 3078 3079 3080 3083 3085 3087 3087 3088 3088 3087 3086 3085 3084 3085 3090 3088 3084 3088 3093 3093 3095 3098 3100 3101 3103 3105 3107 3110 3112 3114 3115 3116 3118 3121 3123 3125 3125 3126 3127 3131 3133 3135 3138 3139 3140 3142 3144 3145 3147 3148 3149 3151 3152 3153 3154 3154 3153 3153 3155 3157 3158 3159 3159 3160 3160 3160 3160 3160 3159 3159 3158 3158 3158 3157 3157 3157
3050 3054 3057 3059 3061 3064 3067 3070 3073 3075 3077 3079 3080 3082 3085 3086 3088 3088 3088 3087 3084 3083 3085 3085 3088 3089 3084 3083 3088 3090 3092 3095 3097 3099 3103 3104 3105 3108 3110 3112 3113 3115 3117 3119 3121 3122 3124 3124 3125 3128 3131 3133 3135 3136 3138 3141 3143 3143 3145 3147 3149 3151 3152 3153 3154 3153 3152 3152 3155 3157 3157 3158 3159 3159 3159 3159 3159 3158 3158 3157 3157 3156 3157 3156 3156 3156
3049 3052 3054 3056 3060 3063 3066 3069 3071 3074 3075 3078 3079 3081 3083 3084 3086 3087 3087 3087 3081 3078 3083 3085 3086 3088 3084 3081 3085 3089 3091 3094 3096 3097 3100 3103 3105 3107 3109 3110 3111 3113 3116 3118 3119 3120 3122 3123 3124 3126 3128 3130 3132 3134 3137 3140 3141 3142 3146 3147 3148 3150 3152 3153 3155 3154 3152 3153 3155 3156 3157 3158 3158 3158 3158 3158 3157 3157 3156 3156 3155 3155 3155 3155 3155 3155
3046 3049 3052 3055 3058 3060 3063 3065 3068 3071 3073 3075 3077 3078 3078 3079 3082 3083 3082 3082 3080 3077 3082 3084 3083 3084 3083 3082 3084 3088 3090 3093 3095 3096 3098 3101 3103 3105 3108 3109 3110 3112 3115 3117 3118 3119 3120 3121 3123 3124 3127 3128 3130 3132 3136 3139 3140 3142 3146 3148 3148 3150 3152 3153 3153 3153 3153 3154 3155 3156 3157 3157 3157 3157 3157 3157 3156 3156 3155 3155 3154 3155 3155 3154 3154 3154
3043 3048 3050 3053 3054 3057 3059 3060 3062 3066 3068 3071 3072 3073 3072 3072 3077 3081 3078 3077 3080 3079 3081 3082 3080 3079 3081 3083 3084 3087 3089 3092 3094 3096 3098 3099 3100 3103 3105 3108 3110 3111 3112 3115 3117 3118 3119 3120 3122 3124 3126 3127 3127 3131 3136 3138 3139 3140 3144 3147 3148 3150 3152 3151 3151 3152 3153 3154 3155 3155 3156 3156 3156 3156 3155 3155 3155 3154 3154 3154 3154 3154 3154 3154 3154 3153
3038 3042 3043 3047 3049 3052 3056 3058 3060 3063 3067 3069 3070 3071 3070 3069 3072 3077 3075 3074 3078 3078 3079 3081 3078 3077 3080 3082 3083 3086 3088 3091 3093 3096 3098 3097 3098 3102 3102 3104 3108 3109 3110 3113 3115 3116 3118 3119 3121 3123 3126 3126 3125 3129 3134 3136 3137 3139 3141 3144 3145 3147 3148 3149 3150 3152 3153 3153 3153 3154 3154 3154 3154 3154 3154 3154 3154 3153 3153 3153 3153 3153 3153 3153 3153 3153
3035 3037 3040 3045 3048 3050 3054 3057 3060 3063 3065 3068 3070 3070 3069 3067 3070 3074 3074 3074 3076 3075 3076 3078 3076 3077 3081 3082 3083 3085 3086 3090 3092 3095 3097 3094 3095 3101 3100 3100 3105 3107 3108 3110 3112 3114 3116 3118 3120 3123 3125 3125 3124 3127 3130 3132 3135 3138 3139 3140 3142 3143 3145 3148 3150 3151 3151 3152 3152 3152 3152 3152 3152 3152 3152 3152 3152 3152 3152 3152 3152 3152 3152 3152 3152 3152
3032 3034 3039 3044 3047 3050 3053 3056 3059 3061 3062 3065 3067 3066 3067 3068 3069 3072 3074 3075 3077 3074 3073 3076 3077 3079 3082 3082 3084 3085 3086 3089 3091 3093 3095 3092 3093 3098 3098 3098 3103 3105 3106 3108 3110 3113 3115 3118 3120 3121 3123 3124 3124 3126 3128 3130 3133 3136 3138 3138 3140 3142 3144 3146 3148 3149 3150 3150 3150 3150 3150 3151 3151 3151 3151 3151 3151 3151 3151 3152 3152 3151 3151 3151 3151 3151
3031 3032 3037 3043 3046 3049 3053 3056 3059 3060 3061 3062 3064 3064 3068 3070 3068 3068 3071 3074 3076 3074 3071 3074 3078 3079 3079 3079 3082 3085 3086 3088 3089 3091 3093 3091 3093 3096 3095 3096 3101 3103 3105 3107 3109 3112 3115 3117 3118 3120 3123 3124 3125 3126 3128 3130 3133 3135 3137 3137 3139 3141 3143 3145 3146 3147 3148 3148 3148 3149 3149 3149 3149 3150 3150 3150 3150 3150 3151 3151 3151 3151 3151 3151 3151 3150
3029 3030 3037 3043 3044 3048 3052 3056 3057 3058 3060 3060 3062 3065 3066 3065 3066 3066 3068 3071 3074 3073 3070 3070 3075 3077 3076 3076 3079 3082 3083 3086 3087 3089 3091 3090 3090 3092 3092 3094 3098 3100 3103 3106 3108 3111 3114 3116 3118 3120 3122 3124 3125 3125 3127 3129 3131 3133 3135 3136 3138 3139 3141 3143 3144 3145 3146 3146 3147 3147 3147 3148 3148 3149 3149 3149 3149 3150 3150 3150 3150 3150 3150 3150 3150 3150
3028 3030 3037 3042 3044 3047 3050 3052 3052 3054 3057 3059 3061 3063 3062 3063 3065 3065 3065 3067 3070 3071 3070 3069 3070 3072 3073 3074 3077 3079 3081 3083 3085 3086 3089 3090 3089 3090 3091 3092 3095 3099 3101 3104 3107 3110 3112 3114 3117 3119 3121 3122 3124 3125 3126 3128 3129 3131 3133 3135 3136 3138 3139 3141 3142 3143 3144 3145 3145 3146 3146 3147 3147 3148 3148 3149 3149 3149 3149 3150 3150 3150 3150 3150 3149 3149
3027 3029 3034 3040 3043 3044 3044 3045 3047 3050 3054 3056 3057 3058 3059 3062 3065 3065 3065 3066 3067 3068 3069 3069 3068 3068 3071 3073 3074 3077 3079 3081 3083 3085 3087 3089 3089 3089 3091 3092 3094 3098 3100 3103 3106 3108 3111 3113 3115 3117 3119 3121 3123 3125 3126 3127 3129 3131 3132 3133 3134 3136 3137 3139 3140 3141 3142 3143 3144 3145 3145 3146 3146 3147 3147 3148 3148 3149 3149 3149 3149 3149 3149 3149 3149 3148
3026 3029 3033 3036 3038 3039 3040 3043 3047 3050 3052 3054 3056 3056 3057 3061 3063 3064 3064 3064 3065 3064 3065 3068 3067 3067 3070 3072 3073 3076 3078 3079 3082 3083 3085 3088 3088 3088 3090 3092 3094 3097 3099 3101 3105 3108 3109 3111 3114 3117 3118 3120 3122 3124 3125 3126 3128 3130 3131 3132 3133 3134 3136 3138 3139 3140 3141 3142 3143 3144 3144 3145 3145 3146 3146 3147 3147 3148 3148 3149 3149 3148 3148 3148 3148 3147
3026 3028 3031 3034 3034 3037 3040 3043 3047 3050 3052 3055 3056 3056 3057 3060 3060 3060 3061 3062 3064 3063 3062 3065 3065 3065 3067 3071 3073 3075 3076 3078 3080 3082 3084 3086 3086 3086 3089 3091 3094 3096 3098 3100 3104 3106 3108 3111 3113 3115 3117 3119 3121 3123 3124 3125 3127 3128 3130 3131 3132 3134 3135 3137 3138 3139 3140 3141 3142 3143 3143 3144 3144 3145 3146 3146 3147 3147 3148 3148 3148 3148 3147 3147 3147 3146
3026 3026 3029 3032 3034 3038 3042 3044 3047 3049 3051 3052 3054 3055 3056 3057 3059 3060 3060 3061 3063 3062 3061 3062 3063 3064 3067 3070 3072 3074 3076 3077 3078 3080 3083 3084 3083 3085 3088 3090 3092 3095 3097 3099 3102 3104 3107 3110 3112 3114 3116 3118 3120 3122 3123 3124 3125 3127 3128 3130 3131 3133 3134 3135 3137 3138 3139 3140 3141 3142 3142 3143 3144 3144 3145 3145 3146 3146 3147 3147 3147 3147 3147 3146 3146 3145
3025 3025 3026 3027 3030 3034 3037 3039 3043 3045 3046 3048 3050 3052 3054 3056 3058 3060 3060 3060 3061 3062 3061 3062 3062 3064 3066 3068 3070 3072 3075 3076 3077 3078 3080 3081 3081 3083 3086 3089 3091 3093 3095 3097 3100 3103 3106 3108 3110 3112 3115 3117 3118 3120 3121 3123 3124 3125 3127 3128 3130 3132 3133 3134 3136 3137 3138 3139 3140 3140 3141 3142 3142 3143 3144 3144 3145 3145 3146 3146 3146 3146 3146 3145 3144 3144
3024 3024 3024 3023 3024 3027 3027 3029 3035 3039 3042 3045 3047 3050 3053 3054 3057 3059 3060 3060 3060 3061 3062 3062 3062 3064 3065 3067 3068 3071 3073 3075 3076 3077 3078 3079 3080 3082 3085 3087 3089 3091 3093 3095 3098 3101 3104 3106 3108 3110 3112 3114 3116 3118 3119 3121 3123 3124 3125 3127 3129 3131 3132 3134 3135 3136 3137 3137 3138 3139 3140 3140 3141 3142 3143 3143 3144 3144 3144 3145 3145 3145 3144 3144 3143 3142
3024 3023 3023 3024 3025 3026 3027 3032 3036 3038 3041 3043 3045 3048 3051 3053 3055 3057 3059 3058 3059 3061 3061 3061 3062 3064 3065 3067 3068 3070 3072 3074 3075 3076 3076 3077 3079 3082 3083 3085 3087 3089 3091 3094 3097 3100 3103 3105 3107 3109 3110 3112 3114 3116 3118 3120 3121 3122 3124 3126 3128 3130 3131 3132 3133 3134 3135 3136 3137 3137 3138 3139 3140 3140 3141 3142 3142 3143 3143 3144 3144 3143 3143 3142 3142 3141
3023 3023 3024 3025 3026 3027 3030 3034 3037 3038 3040 3042 3044 3047 3049 3051 3054 3055 3057 3057 3058 3060 3060 3060 3063 3064 3065 3068 3069 3069 3071 3073 3074 3074 3074 3076 3078 3081 3082 3082 3085 3087 3090 3093 3096 3099 3101 3103 3105 3107 3108 3111 3113 3114 3116 3117 3119 3120 3123 3125 3126 3128 3129 3131 3132 3133 3133 3134 3135 3136 3137 3137 3138 3139 3140 3140 3141 3142 3142 3142 3142 3142 3141 3141 3141 3140
3023 3024 3025 3026 3026 3028 3030 3032 3034 3037 3040 3042 3044 3045 3047 3050 3052 3054 3056 3057 3059 3059 3059 3060 3062 3063 3065 3067 3068 3069 3071 3073 3074 3074 3073 3075 3077 3079 3080 3081 3083 3086 3089 3091 3094 3096 3099 3101 3103 3104 3107 3109 3111 3112 3114 3115 3117 3119 3122 3123 3125 3126 3128 3129 3130 3131 3132 3133 3133 3134 3135 3136 3136 3137 3138 3139 3140 3140 3140 3141 3141 3140 3140 3140 3139 3139
3023 3024 3026 3026 3027 3029 3030 3029 3032 3036 3038 3040 3043 3044 3047 3049 3051 3053 3056 3057 3059 3060 3060 3060 3061 3063 3065 3066 3067 3068 3069 3071 3073 3074 3074 3074 3075 3077 3078 3079 3081 3084 3087 3089 3091 3094 3097 3099 3101 3103 3105 3107 3109 3111 3113 3114 3116 3118 3120 3121 3123 3125 3126 3128 3129 3130 3131 3131 3132 3132 3133 3134 3135 3136 3137 3137 3138 3138 3139 3139 3139 3139 3139 3139 3138 3137
3022 3023 3025 3027 3028 3031 3031 3031 3033 3035 3037 3040 3042 3043 3046 3048 3050 3052 3055 3057 3059 3059 3060 3061 3061 3063 3064 3064 3065 3067 3067 3069 3071 3072 3073 3073 3074 3075 3076 3078 3080 3082 3085 3087 3089 3092 3094 3096 3098 3100 3102 3105 3108 3110 3111 3113 3115 3117 3118 3120 3122 3124 3125 3127 3128 3129 3129 3130 3130 3131 3131 3132 3133 3134 3135 3136 3136 3137 3137 3138 3138 3138 3137 3137 3137 3136
3021 3022 3025 3027 3028 3030 3033 3034 3035 3036 3038 3039 3040 3041 3044 3046 3048 3051 3053 3055 3057 3058 3060 3061 3061 3062 3063 3062 3064 3066 3066 3067 3068 3070 3071 3071 3072 3074 3075 3077 3078 3080 3083 3086 3087 3090 3092 3093 3095 3097 3100 3104 3106 3107 3108 3112 3116 3117 3119 3121 3122 3124 3125 3126 3127 3127 3127 3127 3128 3128 3129 3130 3131 3133 3133 3134 3135 3135 3136 3136 3136 3136 3136 3136 3136 3135
3021 3022 3024 3026 3027 3029 3032 3035 3036 3037 3038 3037 3037 3039 3042 3044 3047 3049 3051 3054 3056 3057 3059 3060 3061 3062 3062 3062 3064 3065 3065 3065 3067 3068 3069 3069 3070 3072 3073 3075 3077 3079 3082 3084 3086 3088 3089 3090 3092 3095 3099 3103 3105 3105 3107 3112 3116 3117 3118 3120 3121 3123 3124 3125 3125 3125 3125 3125 3126 3126 3127 3128 3130 3131 3132 3132 3133 3133 3134 3134 3134 3135 3135 3135 3135 3134
3022 3023 3024 3026 3026 3028 3032 3035 3036 3037 3035 3033 3034 3037 3040 3042 3045 3047 3049 3052 3054 3056 3057 3059 3061 3062 3062 3062 3064 3064 3064 3064 3065 3066 3067 3068 3069 3070 3071 3073 3075 3078 3080 3082 3084 3085 3087 3089 3092 3096 3100 3103 3104 3105 3107 3111 3115 3116 3117 3118 3119 3120 3121 3121 3122 3122 3122 3123 3124 3124 3126 3127 3128 3129 3130 3131 3131 3131 3132 3132 3133 3133 3134 3134 3133 3132
3022 3023 3024 3026 3026 3027 3032 3034 3036 3035 3032 3032 3034 3036 3038 3040 3043 3045 3048 3050 3052 3054 3056 3058 3060 3061 3061 3062 3064 3064 3064 3064 3064 3065 3066 3067 3068 3069 3071 3072 3074 3076 3078 3080 3081 3083 3085 3089 3092 3096 3099 3101 3103 3104 3106 3109 3112 3114 3115 3115 3116 3117 3118 3118 3119 3119 3120 3121 3121 3122 3124 3125 3126 3128 3129 3129 3129 3130 3130 3131 3132 3132 3133 3132 3132 3131
3022 3023 3024 3026 3026 3027 3030 3032 3033 3032 3031 3032 3034 3035 3037 3040 3041 3044 3046 3048 3050 3052 3054 3056 3058 3060 3061 3062 3062 3063 3063 3064 3064 3064 3065 3066 3067 3069 3070 3072 3073 3075 3077 3078 3079 3081 3085 3088 3092 3095 3098 3100 3101 3102 3104 3106 3109 3111 3112 3113 3113 3114 3115 3115 3115 3116 3117 3118 3119 3121 3122 3124 3125 3126 3127 3127 3128 3128 3129 3129 3130 3131 3131 3131 3130 3129
3023 3024 3024 3025 3025 3026 3028 3029 3030 3031 3031 3032 3033 3034 3037 3039 3040 3043 3045 3046 3049 3051 3053 3055 3057 3059 3060 3059 3060 3061 3062 3063 3064 3064 3065 3066 3067 3069 3070 3072 3073 3075 3076 3077 3079 3081 3085 3088 3091 3094 3096 3098 3099 3100 3102 3104 3106 3107 3109 3110 3111 3111 3112 3112 3113 3114 3115 3116 3118 3119 3121 3122 3124 3125 3125 3126 3126 3126 3127 3128 3129 3130 3130 3130 3129 3128
3023 3024 3024 3024 3025 3026 3027 3028 3029 3031 3031 3031 3032 3032 3035 3037 3039 3043 3045 3046 3047 3049 3051 3053 3055 3057 3058 3057 3058 3060 3062 3063 3063 3064 3065 3066 3067 3068 3069 3071 3073 3074 3075 3076 3078 3081 3084 3086 3088 3091 3094 3095 3097 3099 3101 3102 3104 3105 3107 3108 3108 3108 3109 3109 3110 3111 3113 3114 3116 3118 3119 3121 3122 3123 3124 3124 3124 3125 3126 3127 3128 3129 3129 3129 3128 3127
3023 3024 3025 3025 3025 3027 3027 3027 3028 3029 3029 3030 3031 3031 3033 3036 3038 3042 3044 3044 3044 3047 3049 3051 3053 3055 3056 3055 3057 3059 3061 3062 3063 3063 3064 3065 3066 3067 3068 3069 3071 3073 3074 3076 3078 3079 3081 3083 3086 3089 3091 3093 3095 3097 3098 3100 3102 3103 3104 3105 3105 3106 3106 3107 3108 3110 3111 3113 3115 3116 3118 3119 3120 3121 3122 3122 3123 3124 3124 3125 3127 3128 3128 3127 3126 3126
3022 3023 3024 3025 3025 3026 3027 3027 3027 3028 3029 3030 3030 3031 3033 3035 3038 3041 3042 3041 3042 3045 3048 3049 3052 3053 3054 3054 3056 3058 3060 3061 3061 3061 3062 3063 3064 3065 3067 3068 3070 3071 3072 3075 3076 3078 3079 3082 3085 3087 3089 3091 3093 3094 3096 3097 3099 3101 3101 3102 3103 3103 3104 3105 3106 3108 3110 3112 3113 3115 3116 3118 3119 3120 3120 3121 3122 3122 3122 3124 3126 3127 3126 3126 3125 3125
3021 3022 3023 3024 3024 3025 3026 3026 3026 3027 3029 3030 3031 3031 3032 3034 3037 3039 3039 3038 3040 3043 3045 3048 3051 3052 3052 3053 3055 3056 3057 3058 3059 3059 3060 3062 3063 3064 3066 3067 3069 3070 3071 3073 3074 3076 3078 3081 3084 3085 3087 3089 3091 3092 3093 3095 3097 3098 3099 3099 3100 3101 3102 3103 3105 3107 3109 3111 3112 3114 3115 3116 3117 3118 3118 3119 3120 3120 3121 3123 3125 3125 3124 3124 3124 3124
3020 3022 3023 3023 3023 3023 3024 3026 3026 3026 3028 3030 3031 3031 3032 3034 3036 3037 3037 3038 3039 3041 3043 3045 3048 3049 3050 3052 3053 3054 3055 3056 3057 3058 3059 3060 3062 3063 3064 3066 3067 3068 3069 3071 3072 3074 3077 3080 3081 3083 3085 3087 3088 3090 3091 3093 3095 3096 3096 3097 3098 3099 3100 3102 3104 3105 3107 3109 3111 3112 3114 3115 3115 3116 3117 3117 3117 3118 3120 3123 3124 3123 3123 3123 3123 3123
3017 3020 3021 3021 3022 3022 3023 3024 3025 3025 3027 3029 3031 3032 3033 3034 3035 3035 3036 3038 3038 3039 3041 3043 3045 3047 3048 3049 3051 3051 3053 3055 3056 3057 3058 3059 3060 3061 3063 3064 3065 3066 3067 3069 3070 3074 3078 3079 3080 3082 3083 3085 3086 3088 3090 3091 3092 3093 3094 3095 3096 3097 3099 3101 3102 3104 3106 3107 3109 3111 3112 3112 3113 3114 3115 3115 3116 3117 3120 3121 3122 3121 3121 3122 3122 3123
3016 3018 3018 3019 3021 3021 3021 3022 3023 3024 3026 3028 3031 3032 3033 3034 3034 3035 3036 3037 3037 3038 3040 3041 3042 3044 3046 3047 3048 3050 3053 3054 3054 3055 3057 3057 3058 3060 3061 3062 3063 3065 3066 3068 3070 3073 3075 3076 3078 3081 3083 3084 3085 3086 3088 3089 3090 3091 3092 3093 3094 3096 3098 3099 3101 3103 3104 3106 3107 3108 3109 3110 3111 3112 3113 3113 3114 3117 3119 3120 3120 3120 3120 3121 3121 3122
3015 3015 3016 3017 3019 3020 3020 3022 3023 3024 3026 3028 3029 3031 3032 3034 3035 3035 3036 3036 3037 3038 3039 3040 3041 3043 3045 3046 3047 3048 3051 3052 3052 3053 3055 3056 3057 3058 3059 3060 3062 3064 3065 3067 3069 3070 3072 3074 3077 3080 3081 3082 3083 3084 3086 3087 3087 3089 3090 3091 3093 3094 3096 3098 3100 3102 3103 3104 3105 3106 3107 3109 3110 3111 3111 3112 3114 3116 3118 3118 3118 3118 3119 3120 3121 3121
3013 3014 3016 3017 3018 3019 3021 3022 3024 3025 3026 3028 3029 3031 3032 3033 3034 3035 3036 3036 3037 3038 3039 3040 3041 3042 3044 3045 3046 3048 3049 3051 3051 3052 3053 3055 3056 3056 3057 3059 3061 3062 3063 3065 3067 3069 3071 3073 3075 3077 3078 3079 3080 3082 3083 3085 3086 3087 3088 3089 3091 3092 3094 3096 3098 3100 3102 3103 3104 3105 3106 3107 3108 3109 3110 3111 3113 3115 3116 3116 3116 3117 3118 3119 3120 3120
3013 3014 3016 3018 3019 3020 3021 3022 3023 3025 3026 3028 3029 3030 3031 3032 3033 3035 3036 3036 3037 3038 3038 3039 3040 3042 3043 3044 3045 3046 3048 3049 3050 3051 3052 3053 3054 3055 3056 3057 3059 3060 3062 3064 3065 3067 3068 3070 3072 3074 3075 3077 3078 3080 3082 3083 3084 3085 3086 3087 3089 3091 3092 3095 3096 3098 3100 3102 3103 3104 3105 3106 3107 3108 3109 3111 3113 3114 3114 3114 3115 3116 3117 3118 3119 3119
3012 3014 3016 3018 3019 3019 3020 3021 3022 3024 3026 3027 3028 3029 3029 3030 3032 3033 3035 3036 3037 3037 3038 3039 3040 3041 3042 3043 3045 3045 3046 3047 3048 3049 3050 3051 3052 3053 3055 3056 3057 3059 3061 3062 3062 3064 3067 3069 3071 3072 3073 3075 3077 3078 3079 3081 3082 3083 3084 3085 3087 3089 3091 3093 3094 3096 3098 3100 3101 3102 3104 3105 3105 3106 3108 3110 3111 3112 3112 3113 3113 3115 3116 3117 3118 3118
3012 3014 3016 3018 3018 3018 3019 3020 3021 3023 3024 3026 3027 3028 3029 3029 3031 3032 3034 3035 3036 3037 3038 3039 3040 3041 3042 3043 3043 3044 3045 3046 3046 3047 3049 3050 3050 3051 3053 3054 3056 3057 3059 3060 3061 3063 3066 3068 3069 3070 3072 3074 3075 3076 3077 3078 3080 3081 3082 3084 3085 3087 3089 3091 3093 3095 3097 3098 3099 3101 3102 3103 3104 3105 3107 3109 3110 3111 3111 3112 3113 3115 3116 3116 3117 3118
3013 3014 3014 3016 3017 3017 3018 3019 3020 3021 3023 3024 3025 3027 3028 3029 3030 3031 3033 3034 3035 3037 3038 3038 3039 3040 3041 3041 3042 3042 3043 3044 3045 3045 3047 3048 3049 3050 3051 3053 3054 3055 3057 3058 3059 3061 3064 3066 3068 3069 3070 3072 3073 3074 3075 3076 3077 3078 3080 3082 3084 3086 3088 3090 3092 3094 3095 3097 3098 3099 3100 3101 3102 3103 3105 3107 3109 3110 3111 3112 3113 3114 3115 3116 3116 3117
3012 3012 3013 3015 3016 3016 3017 3018 3019 3020 3021 3022 3024 3026 3027 3028 3029 3030 3031 3032 3034 3035 3036 3037 3038 3039 3039 3040 3040 3041 3041 3042 3043 3043 3045 3046 3047 3048 3049 3051 3051 3053 3055 3056 3057 3059 3062 3065 3066 3067 3068 3069 3071 3072 3073 3074 3075 3076 3078 3080 3082 3085 3087 3089 3091 3092 3094 3095 3097 3098 3099 3099 3100 3102 3104 3106 3107 3108 3109 3111 3112 3113 3114 3115 3116 3117